This is the latest recevied weather packets stored in our database for station/object KI4BIY. If no packets are shown the sender has not sent any weather packets the latest 10 day(s).
| Time | Temp. | Humidity | Pressure | Rain* | Wind** | Luminosity | Snow |
|---|---|---|---|---|---|---|---|
| 1777749839 | 20.56° C | 41% | 1016.2 hPa | 0 mm | - | 99 W/m² | - |
| 1777749536 | 21.11° C | 40% | 1016.2 hPa | 0 mm | - | 80 W/m² | - |
| 1777749234 | 20.56° C | 43% | 1016.1 hPa | 0 mm | - | 753 W/m² | - |
| 1777748931 | 20.56° C | 41% | 1016.1 hPa | 0 mm | - | 77 W/m² | - |
| 1777748628 | 21.11° C | 42% | 1016.3 hPa | 0 mm | - | 444 W/m² | - |
| 1777748324 | 20° C | 42% | 1016.3 hPa | 0 mm | - | 373 W/m² | - |
| 1777748019 | 20° C | 41% | 1016.2 hPa | 0 mm | - | 81 W/m² | - |
| 1777747717 | 21.11° C | 42% | 1016.5 hPa | 0 mm | - | 145 W/m² | - |
| 1777747412 | 20.56° C | 46% | 1016.5 hPa | 0 mm | - | 108 W/m² | - |
| 1777747109 | 21.67° C | 38% | 1016.7 hPa | 0 mm | - | 729 W/m² | - |
| 1777746805 | 21.67° C | 44% | 1016.5 hPa | 0 mm | - | 727 W/m² | - |
| 1777746500 | 21.67° C | 41% | 1016.7 hPa | 0 mm | - | 743 W/m² | - |
| 1777746196 | 21.67° C | 43% | 1016.8 hPa | 0 mm | - | 726 W/m² | - |
| 1777745893 | 20.56° C | 42% | 1016.7 hPa | 0 mm | - | 700 W/m² | - |
| 1777745592 | 21.11° C | 46% | 1016.4 hPa | 0 mm | - | 458 W/m² | - |
| 1777745289 | 20.56° C | 44% | 1016.8 hPa | 0 mm | - | 645 W/m² | - |
| 1777744987 | 20° C | 45% | 1017.1 hPa | 0 mm | - | 666 W/m² | - |
| 1777744682 | 21.11° C | 39% | 1017.2 hPa | 0 mm | - | 645 W/m² | - |
| 1777744376 | 21.11° C | 40% | 1017.1 hPa | 0 mm | - | 614 W/m² | - |
| 1777744073 | 21.11° C | 43% | 1017.1 hPa | 0 mm | - | 700 W/m² | - |
| 1777743771 | 20.56° C | 45% | 1017.2 hPa | 0 mm | - | 740 W/m² | - |
| 1777743467 | 21.11° C | 42% | 1017.2 hPa | 0 mm | - | 727 W/m² | - |
| 1777743165 | 20.56° C | 45% | 1017.3 hPa | 0 mm | - | 679 W/m² | - |
| 1777742863 | 20.56° C | 42% | 1017.4 hPa | 0 mm | - | 663 W/m² | - |
| 1777742558 | 20.56° C | 44% | 1017.5 hPa | 0 mm | - | 712 W/m² | - |
* Rain latest hour (hover to see other rain measurements)
** Current wind speed in m/s (hover to see current wind gust speed)